Location: �bnet
(46.9957°N, 8.4908°E)
Time: 01:14:09
(UTC+00:00)

Cosmos 2112 Rocket - Pass Details

Date: 11 May 2021
Orbit: 755 x 787 km, 74.1° (Epoch: 23 June)

Event Time Altitude Azimuth Distance (km) Brightness Sun altitude
Rises 21:38:54 0° 338° (NNW) 3,286 8.9 -20.8°
Reaches altitude 10° 21:41:18 10° 339° (NNW) 2,356 7.7 -21.0°
Maximum altitude 21:46:41 84° 68° (ENE) 798 4.0 -21.4°
Enters shadow 21:48:12 49° 152° (SSE) 1,017 4.2 -21.5°
